VOE6PL LIMF-LIEO

Flight info

Callsign VOE6PL
Flight time 0h 51m
Altitude 35000
Route LAGEN1W LAGEN DCT ANAKI DCT UNITA DCT OLETI DCT TORTU DCT OKROK DCT AJO DCT CORSI CORSI2R
Aircraft A319/M-SDE1E2E3FGHIJ2J3J4J5M1RWXYZ/LB1D1

Departure

Time 2026-05-06 20:40
Airport Turin Airport (LIMF)

Arrival

Time 2026-05-06 21:32
Airport Olbia Costa Smeralda Airport (LIEO)
Time Latitude Longitude Altitude Speed Heading
2026-05-06 20:22 45.19348 7.64465 1003 ft 0 kts 232°
2026-05-06 20:34 45.19356 7.64479 1003 ft 2 kts 232°
2026-05-06 20:34 45.19367 7.64500 1003 ft 3 kts 232°
2026-05-06 20:34 45.19380 7.64522 1003 ft 3 kts 232°
2026-05-06 20:35 45.19387 7.64531 1003 ft 0 kts 190°
2026-05-06 20:36 45.19386 7.64531 1003 ft 0 kts 190°
2026-05-06 20:36 45.19381 7.64532 1003 ft 2 kts 147°
2026-05-06 20:37 45.19368 7.64579 1003 ft 9 kts 107°
2026-05-06 20:37 45.19330 7.64662 1003 ft 11 kts 155°
2026-05-06 20:37 45.19235 7.64663 1003 ft 17 kts 184°
2026-05-06 20:37 45.19106 7.64653 1003 ft 19 kts 182°
2026-05-06 20:38 45.18967 7.64648 1003 ft 21 kts 182°
2026-05-06 20:38 45.18851 7.64640 1003 ft 14 kts 183°
2026-05-06 20:38 45.18791 7.64703 1003 ft 12 kts 94°
2026-05-06 20:38 45.18792 7.64827 1003 ft 9 kts 89°
2026-05-06 20:39 45.18800 7.64873 1003 ft 4 kts 39°
2026-05-06 20:39 45.18819 7.64884 1003 ft 0 kts
2026-05-06 20:39 45.18878 7.64888 1004 ft 35 kts
2026-05-06 20:39 45.19462 7.64924 1004 ft 132 kts
2026-05-06 20:40 45.20550 7.65005 1480 ft 163 kts
2026-05-06 20:40 45.21700 7.65134 2363 ft 170 kts
2026-05-06 20:40 45.22909 7.65427 2897 ft 186 kts 19°
2026-05-06 20:40 45.24080 7.66368 3413 ft 204 kts 39°
2026-05-06 20:41 45.25139 7.67851 3974 ft 224 kts 58°
2026-05-06 20:41 45.25569 7.70034 4633 ft 240 kts 91°
2026-05-06 20:41 45.25309 7.72443 5390 ft 254 kts 100°
2026-05-06 20:41 45.25024 7.74953 6139 ft 267 kts 94°
2026-05-06 20:42 45.24899 7.77650 6905 ft 280 kts 98°
2026-05-06 20:42 45.24216 7.80267 7641 ft 289 kts 127°
2026-05-06 20:42 45.22742 7.82172 8510 ft 287 kts 155°
2026-05-06 20:42 45.20914 7.83306 9448 ft 289 kts 162°
2026-05-06 20:43 45.19034 7.84425 10349 ft 296 kts 159°
2026-05-06 20:43 45.17162 7.85790 11065 ft 310 kts 154°
2026-05-06 20:43 45.15258 7.87388 11691 ft 325 kts 152°
2026-05-06 20:43 45.13292 7.89110 12299 ft 339 kts 151°
2026-05-06 20:44 45.11261 7.90872 13088 ft 345 kts 153°
2026-05-06 20:44 45.09145 7.92410 13905 ft 347 kts 158°
2026-05-06 20:44 45.06930 7.93820 14710 ft 351 kts 160°
2026-05-06 20:44 45.04666 7.95185 15495 ft 355 kts 160°
2026-05-06 20:45 45.02381 7.96558 16255 ft 359 kts 160°
2026-05-06 20:45 45.00075 7.97976 17001 ft 364 kts 160°
2026-05-06 20:45 44.97740 7.99441 17729 ft 368 kts 159°
2026-05-06 20:45 44.95394 8.00923 18432 ft 372 kts 159°
2026-05-06 20:46 44.93036 8.02408 19113 ft 376 kts 159°
2026-05-06 20:46 44.90626 8.03912 19783 ft 380 kts 160°
2026-05-06 20:46 44.88185 8.05427 20435 ft 384 kts 160°
2026-05-06 20:46 44.85726 8.06952 21069 ft 387 kts 159°
2026-05-06 20:47 44.83249 8.08492 21685 ft 391 kts 159°
2026-05-06 20:47 44.80746 8.10046 22280 ft 394 kts 159°
2026-05-06 20:47 44.78254 8.11594 22849 ft 398 kts 159°
2026-05-06 20:47 44.75708 8.13173 23410 ft 401 kts 159°
2026-05-06 20:48 44.73140 8.14764 23958 ft 405 kts 159°
2026-05-06 20:48 44.70548 8.16369 24487 ft 408 kts 159°
2026-05-06 20:48 44.67935 8.17984 25001 ft 411 kts 159°
2026-05-06 20:48 44.65300 8.19609 25501 ft 415 kts 159°
2026-05-06 20:49 44.62648 8.21243 25995 ft 418 kts 159°
2026-05-06 20:49 44.59980 8.22886 26481 ft 421 kts 159°
2026-05-06 20:49 44.57280 8.24548 26965 ft 424 kts 159°
2026-05-06 20:49 44.54574 8.26211 27438 ft 427 kts 159°
2026-05-06 20:50 44.51834 8.27894 27889 ft 431 kts 159°
2026-05-06 20:50 44.49003 8.29318 28213 ft 434 kts 166°
2026-05-06 20:50 44.46115 8.30412 28622 ft 437 kts 169°
2026-05-06 20:50 44.43141 8.31411 29050 ft 440 kts 170°
2026-05-06 20:51 44.40150 8.32403 29566 ft 441 kts 169°
2026-05-06 20:51 44.37174 8.33445 30168 ft 440 kts 168°
2026-05-06 20:51 44.34220 8.34541 30763 ft 439 kts 168°
2026-05-06 20:51 44.31259 8.35665 31357 ft 438 kts 168°
2026-05-06 20:52 44.28349 8.36755 31930 ft 437 kts 168°
2026-05-06 20:52 44.25409 8.37828 32492 ft 436 kts 168°
2026-05-06 20:52 44.22479 8.38879 33041 ft 434 kts 169°
2026-05-06 20:52 44.19552 8.39928 33576 ft 434 kts 168°
2026-05-06 20:53 44.16629 8.40982 34098 ft 433 kts 168°
2026-05-06 20:53 44.13719 8.42040 34603 ft 432 kts 168°
2026-05-06 20:53 44.10841 8.43089 34960 ft 432 kts 168°
2026-05-06 20:54 44.05033 8.45194 34995 ft 430 kts 168°
2026-05-06 20:54 43.99227 8.47284 35003 ft 430 kts 168°
2026-05-06 20:55 43.93427 8.49374 35005 ft 430 kts 168°
2026-05-06 20:55 43.88614 8.51108 35006 ft 430 kts 168°
2026-05-06 20:56 43.81874 8.53526 35012 ft 430 kts 168°
2026-05-06 20:56 43.76067 8.55604 35016 ft 430 kts 168°
2026-05-06 20:57 43.71210 8.57341 35020 ft 430 kts 168°
2026-05-06 20:57 43.65449 8.59396 35024 ft 430 kts 168°
2026-05-06 20:58 43.59646 8.61465 35029 ft 430 kts 168°
2026-05-06 20:58 43.53842 8.63526 35034 ft 430 kts 169°
2026-05-06 20:59 43.48041 8.65583 35035 ft 430 kts 169°
2026-05-06 20:59 43.42245 8.67637 35029 ft 430 kts 169°
2026-05-06 21:00 43.36474 8.69676 35027 ft 430 kts 169°
2026-05-06 21:00 43.30664 8.71722 35026 ft 430 kts 169°
2026-05-06 21:01 43.24857 8.73767 35044 ft 429 kts 169°
2026-05-06 21:01 43.19085 8.75795 35021 ft 430 kts 169°
2026-05-06 21:02 43.13279 8.77829 35001 ft 430 kts 169°
2026-05-06 21:02 43.07508 8.79849 34979 ft 430 kts 169°
2026-05-06 21:03 43.01706 8.81875 34965 ft 430 kts 169°
2026-05-06 21:03 42.95911 8.83893 34959 ft 430 kts 169°
2026-05-06 21:04 42.90112 8.85910 34958 ft 430 kts 169°
2026-05-06 21:04 42.84310 8.87924 34964 ft 430 kts 169°
2026-05-06 21:05 42.78449 8.88987 34966 ft 422 kts 186°
2026-05-06 21:05 42.72644 8.88302 34951 ft 421 kts 189°
2026-05-06 21:06 42.66798 8.87489 34970 ft 421 kts 188°
2026-05-06 21:06 42.60979 8.86870 34982 ft 422 kts 187°
2026-05-06 21:07 42.55116 8.86236 34988 ft 421 kts 188°
2026-05-06 21:07 42.49269 8.85551 35010 ft 421 kts 188°
2026-05-06 21:08 42.43472 8.84893 35039 ft 420 kts 188°
2026-05-06 21:08 42.37639 8.84240 35029 ft 420 kts 188°
2026-05-06 21:09 42.31806 8.83582 35019 ft 420 kts 188°
2026-05-06 21:09 42.25999 8.82929 34704 ft 415 kts 188°
2026-05-06 21:09 42.23118 8.82606 34046 ft 415 kts 188°
2026-05-06 21:10 42.20253 8.82282 33086 ft 422 kts 188°
2026-05-06 21:10 42.17304 8.81946 32166 ft 428 kts 188°
2026-05-06 21:10 42.14336 8.81612 31605 ft 424 kts 188°
2026-05-06 21:10 42.11431 8.81293 31318 ft 413 kts 188°
2026-05-06 21:11 42.08584 8.80979 30929 ft 406 kts 188°
2026-05-06 21:11 42.05785 8.80668 30495 ft 400 kts 188°
2026-05-06 21:11 42.03027 8.80356 30057 ft 395 kts 188°
2026-05-06 21:11 42.00301 8.80047 29578 ft 391 kts 188°
2026-05-06 21:12 41.97600 8.79745 29111 ft 387 kts 188°
2026-05-06 21:12 41.94962 8.79454 28669 ft 383 kts 188°
2026-05-06 21:12 41.92320 8.79163 28225 ft 380 kts 188°
2026-05-06 21:12 41.89697 8.78874 27786 ft 377 kts 188°
2026-05-06 21:13 41.87086 8.78582 27352 ft 376 kts 188°
2026-05-06 21:13 41.84477 8.78290 26896 ft 374 kts 188°
2026-05-06 21:13 41.81881 8.78031 26501 ft 371 kts 185°
2026-05-06 21:13 41.79331 8.78570 26185 ft 377 kts 164°
2026-05-06 21:14 41.76875 8.79848 25996 ft 377 kts 162°
2026-05-06 21:14 41.74430 8.81089 25649 ft 375 kts 163°
2026-05-06 21:14 41.71981 8.82275 25211 ft 373 kts 164°
2026-05-06 21:14 41.69567 8.83437 24777 ft 373 kts 163°
2026-05-06 21:15 41.67125 8.84638 24334 ft 372 kts 163°
2026-05-06 21:15 41.64701 8.85854 23914 ft 371 kts 163°
2026-05-06 21:15 41.62289 8.87071 23495 ft 369 kts 163°
2026-05-06 21:15 41.59885 8.88274 23078 ft 368 kts 163°
2026-05-06 21:16 41.57486 8.89468 22662 ft 367 kts 163°
2026-05-06 21:16 41.55124 8.90641 22267 ft 366 kts 163°
2026-05-06 21:16 41.52681 8.91527 21665 ft 363 kts 173°
2026-05-06 21:16 41.50161 8.92045 20922 ft 367 kts 176°
2026-05-06 21:17 41.47619 8.92443 20405 ft 366 kts 177°
2026-05-06 21:17 41.45100 8.92833 19934 ft 363 kts 177°
2026-05-06 21:17 41.42632 8.93259 19468 ft 361 kts 176°
2026-05-06 21:17 41.40146 8.93735 19001 ft 359 kts 175°
2026-05-06 21:18 41.37687 8.94227 18544 ft 356 kts 175°
2026-05-06 21:18 41.35249 8.94708 18125 ft 351 kts 175°
2026-05-06 21:18 41.32834 8.95172 17638 ft 350 kts 176°
2026-05-06 21:18 41.30420 8.95620 17131 ft 350 kts 176°
2026-05-06 21:19 41.27985 8.96067 16425 ft 355 kts 176°
2026-05-06 21:19 41.25560 8.96519 15911 ft 355 kts 175°
2026-05-06 21:19 41.23117 8.96981 15467 ft 352 kts 175°
2026-05-06 21:19 41.20695 8.97438 15019 ft 350 kts 175°
2026-05-06 21:20 41.18296 8.97890 14576 ft 348 kts 175°
2026-05-06 21:20 41.15904 8.98401 14122 ft 347 kts 172°
2026-05-06 21:20 41.13558 8.99151 13669 ft 346 kts 169°
2026-05-06 21:20 41.11246 8.99988 13212 ft 344 kts 168°
2026-05-06 21:21 41.08976 9.00821 12756 ft 341 kts 168°
2026-05-06 21:21 41.06684 9.01632 12293 ft 339 kts 169°
2026-05-06 21:21 41.04405 9.02407 11826 ft 336 kts 169°
2026-05-06 21:21 41.02140 9.03163 11359 ft 334 kts 169°
2026-05-06 21:22 40.99903 9.03911 10961 ft 328 kts 169°
2026-05-06 21:22 40.97735 9.04646 10691 ft 315 kts 169°
2026-05-06 21:22 40.95664 9.05355 10486 ft 301 kts 169°
2026-05-06 21:22 40.93659 9.06033 10180 ft 296 kts 169°
2026-05-06 21:23 40.91653 9.06706 9623 ft 300 kts 169°
2026-05-06 21:23 40.89660 9.07375 9295 ft 296 kts 169°
2026-05-06 21:23 40.87694 9.08043 9000 ft 288 kts 169°
2026-05-06 21:23 40.85762 9.08699 8505 ft 285 kts 169°
2026-05-06 21:24 40.83843 9.09343 7998 ft 283 kts 170°
2026-05-06 21:24 40.81939 9.09979 7481 ft 280 kts 169°
2026-05-06 21:24 40.80127 9.10941 6946 ft 285 kts 150°
2026-05-06 21:24 40.78780 9.12822 6585 ft 281 kts 123°
2026-05-06 21:25 40.77909 9.15057 6418 ft 265 kts 116°
2026-05-06 21:25 40.77139 9.17183 6129 ft 256 kts 118°
2026-05-06 21:25 40.76280 9.19238 5687 ft 254 kts 121°
2026-05-06 21:25 40.75402 9.21236 5315 ft 249 kts 115°
2026-05-06 21:26 40.75074 9.23401 5059 ft 237 kts 82°
2026-05-06 21:26 40.75654 9.25330 4875 ft 222 kts 50°
2026-05-06 21:26 40.76623 9.26841 4768 ft 210 kts 47°
2026-05-06 21:26 40.77519 9.28324 4599 ft 203 kts 51°
2026-05-06 21:27 40.78342 9.29823 4364 ft 201 kts 53°
2026-05-06 21:27 40.79135 9.31315 4112 ft 199 kts 54°
2026-05-06 21:27 40.79899 9.32788 3872 ft 193 kts 55°
2026-05-06 21:27 40.80660 9.34236 3587 ft 190 kts 54°
2026-05-06 21:28 40.81409 9.35621 3318 ft 179 kts 54°
2026-05-06 21:28 40.82109 9.36916 3065 ft 167 kts 56°
2026-05-06 21:28 40.82740 9.38173 2759 ft 161 kts 57°
2026-05-06 21:28 40.83335 9.39382 2474 ft 155 kts 56°
2026-05-06 21:29 40.83928 9.40520 2243 ft 147 kts 54°
2026-05-06 21:29 40.84510 9.41596 1978 ft 142 kts 54°
2026-05-06 21:29 40.85078 9.42638 1715 ft 137 kts 55°
2026-05-06 21:29 40.85623 9.43667 1502 ft 136 kts 55°
2026-05-06 21:30 40.86163 9.44696 1317 ft 136 kts 55°
2026-05-06 21:30 40.86694 9.45714 1128 ft 136 kts 56°
2026-05-06 21:30 40.87226 9.46744 941 ft 135 kts 56°
2026-05-06 21:30 40.87765 9.47758 729 ft 135 kts 54°
2026-05-06 21:31 40.88304 9.48774 498 ft 134 kts 55°
2026-05-06 21:31 40.88831 9.49789 307 ft 135 kts 56°
2026-05-06 21:31 40.89361 9.50809 75 ft 132 kts 55°
2026-05-06 21:31 40.89839 9.51719 52 ft 100 kts 55°
2026-05-06 21:32 40.90135 9.52278 52 ft 48 kts 54°
2026-05-06 21:32 40.90329 9.52605 51 ft 14 kts 28°
2026-05-06 21:32 40.90419 9.52605 52 ft 13 kts 310°
2026-05-06 21:33 40.90436 9.52487 51 ft 14 kts 260°
2026-05-06 21:33 40.90394 9.52367 52 ft 15 kts 240°
2026-05-06 21:33 40.90337 9.52247 52 ft 16 kts 235°
2026-05-06 21:33 40.90267 9.52117 51 ft 18 kts 236°
2026-05-06 21:34 40.90200 9.51976 51 ft 19 kts 252°
2026-05-06 21:34 40.90202 9.51807 51 ft 19 kts 296°
2026-05-06 21:34 40.90232 9.51710 52 ft 8 kts 242°
2026-05-06 21:34 40.90203 9.51642 52 ft 5 kts 263°
2026-05-06 21:35 40.90225 9.51609 52 ft 5 kts 327°
2026-05-06 21:35 40.90232 9.51603 52 ft 0 kts 328°